METAR Formatted Surface Weather Observation
Issued by NWS

Home | Current Version | Previous Version | Text Only | Print | Product List | Glossary On
Versions: 1 2 3 4 5 6 7 8 9 10 11 12 13 14 15 16 17 18 19
000
SAUS46 KSEW 230804
MTRSMP
METAR KSMP 230756Z AUTO 00000KT 1/2SM FG SCT002 BKN065 12/11 A3012
RMK AO2 RAE0657 SLP188 P0000 T01220111 401670106



USA.gov is the U.S. government's official web portal to all federal, state and local government web resources and services.